FW6744 Weather Reports


time (UTC)temp
C
wind
direction
speed
KPH
gust
KPH
rain 1hr
cm
rain 24hr
cm
rain mn
cm
humidity
%
barometer
mb
20260502220137 15 31 1.6 4.8 0.00 0.00 0.00 44 1007.5
20260502215630 15 31 1.6 4.8 0.00 0.00 0.00 46 1007.5
20260502215125 15 33 1.6 3.2 0.00 0.00 0.00 43 1007.4
20260502214620 15 32 1.6 4.8 0.00 0.00 0.00 44 1007.5
20260502214113 16 28 1.6 4.8 0.00 0.00 0.00 45 1007.5
20260502213606 16 34 1.6 4.8 0.00 0.00 0.00 44 1007.5
20260502213101 16 37 1.6 4.8 0.00 0.00 0.00 44 1007.4
20260502212555 15 143 1.6 6.4 0.00 0.00 0.00 44 1007.5
20260502212049 15 35 1.6 6.4 0.00 0.00 0.00 46 1007.4
20260502211542 15 23 1.6 4.8 0.00 0.00 0.00 47 1007.4
20260502211037 15 32 0.0 3.2 0.00 0.00 0.00 48 1007.4
20260502210532 15 23 0.0 3.2 0.00 0.00 0.00 46 1007.3
20260502210025 15 30 1.6 4.8 0.00 0.00 0.00 46 1007.3
20260502205746 15 30 1.6 4.8 0.00 0.00 0.00 46 1007.3
20260502205012 15 27 0.0 3.2 0.00 0.00 0.00 48 1007.2
20260502204506 15 146 0.0 3.2 0.00 0.00 0.00 46 1007.2
20260502204001 15 202 1.6 6.4 0.00 0.00 0.00 45 1007.3
20260502203455 15 26 0.0 6.4 0.00 0.00 0.00 44 1007.4
20260502202948 16 35 0.0 6.4 0.00 0.00 0.00 45 1007.5
20260502202447 16 43 0.0 6.4 0.00 0.00 0.00 45 1007.5
20260502201946 16 207 0.0 4.8 0.00 0.00 0.00 44 1007.4
20260502201446 16 29 0.0 4.8 0.00 0.00 0.00 45 1007.4
20260502200945 16 163 0.0 3.2 0.00 0.00 0.00 43 1007.5
20260502200446 16 39 0.0 3.2 0.00 0.00 0.00 45 1007.5
20260502200207 16 40 1.6 3.2 0.00 0.00 0.00 46 1007.3
20260502195709 16 39 1.6 3.2 0.00 0.00 0.00 43 1007.5
20260502194939 17 188 0.0 3.2 0.00 0.00 0.00 42 1007.6
20260502194702 17 30 0.0 3.2 0.00 0.00 0.00 42 1007.5
20260502193940 17 214 1.6 4.8 0.00 0.00 0.00 42 1007.7
20260502193439 16 38 1.6 4.8 0.00 0.00 0.00 45 1007.7
20260502192937 16 25 0.0 4.8 0.00 0.00 0.00 44 1007.8
20260502192437 16 39 1.6 8.0 0.00 0.00 0.00 42 1007.8
20260502192154 16 43 1.6 8.0 0.00 0.00 0.00 42 1007.9
20260502191434 16 30 1.6 4.8 0.00 0.00 0.00 43 1007.9
20260502191200 16 34 1.6 9.7 0.00 0.00 0.00 45 1008.0
20260502190434 16 34 1.6 9.7 0.00 0.00 0.00 43 1008.0
20260502185936 16 22 0.0 4.8 0.00 0.00 0.00 45 1008.1
20260502185432 16 44 0.0 4.8 0.00 0.00 0.00 46 1008.3
20260502184924 16 33 0.0 4.8 0.00 0.00 0.00 45 1008.3
20260502184418 16 26 1.6 4.8 0.00 0.00 0.00 46 1008.3
20260502183912 16 41 1.6 6.4 0.00 0.00 0.00 46 1008.3
20260502183412 16 31 1.6 6.4 0.00 0.00 0.00 45 1008.3
20260502182909 15 13 1.6 4.8 0.00 0.00 0.00 45 1008.5
20260502182408 16 209 1.6 6.4 0.00 0.00 0.00 45 1008.7
20260502181905 16 103 1.6 12.9 0.00 0.00 0.00 45 1008.9
20260502181403 16 148 1.6 12.9 0.00 0.00 0.00 45 1008.8
20260502180902 16 168 1.6 6.4 0.00 0.00 0.00 47 1008.9
20260502180359 15 210 1.6 8.0 0.00 0.00 0.00 47 1009.0
20260502170350 13 41 1.6 4.8 0.00 0.00 0.00 52 1010.0
20260502164342 13 32 0.0 4.8 0.00 0.00 0.00 53 1010.0
20260502163844 13 32 1.6 8.0 0.00 0.00 0.00 53 1010.0
20260502163344 13 38 1.6 8.0 0.00 0.00 0.00 51 1010.0
20260502162842 13 32 1.6 6.4 0.00 0.00 0.00 51 1010.0
20260502162345 13 216 1.6 6.4 0.00 0.00 0.00 52 1010.2
20260502161843 13 31 0.0 6.4 0.00 0.00 0.00 53 1010.1
20260502161344 13 49 0.0 3.2 0.00 0.00 0.00 55 1010.2
20260502160840 13 31 0.0 3.2 0.00 0.00 0.00 53 1010.3
20260502160339 13 31 0.0 3.2 0.00 0.00 0.00 56 1010.1
20260502152339 12 27 1.6 8.0 0.00 0.00 0.00 55 1010.6
20260502151838 12 27 1.6 8.0 0.00 0.00 0.00 55 1010.5
20260502151338 12 252 1.6 6.4 0.00 0.00 0.00 56 1010.3
20260502150839 12 51 1.6 4.8 0.00 0.00 0.00 56 1010.4
20260502150338 12 20 1.6 8.0 0.00 0.00 0.00 58 1010.5
20260502130252 11 27 3.2 9.7 0.00 0.00 0.00 66 1009.9
20260502123737 11 28 1.6 4.8 0.00 0.00 0.00 71 1009.4
20260502123457 11 30 0.0 4.8 0.00 0.00 0.00 72 1009.6
20260502122725 11 20 1.6 4.8 0.00 0.00 0.00 72 1009.6
20260502122451 11 42 1.6 8.0 0.00 0.00 0.00 73 1009.5
20260502121713 11 29 0.0 8.0 0.00 0.00 0.00 73 1009.5
20260502121207 11 25 0.0 4.8 0.00 0.00 0.00 75 1009.3
20260502120701 11 24 1.6 4.8 0.00 0.00 0.00 75 1009.2
20260502120155 11 28 1.6 4.8 0.00 0.00 0.00 75 1009.3
20260502115648 11 34 1.6 4.8 0.00 0.00 0.00 76 1009.3
20260502115143 10 28 1.6 4.8 0.00 0.00 0.00 77 1009.4
20260502114637 10 29 1.6 4.8 0.00 0.00 0.00 76 1009.4
20260502114131 10 251 0.0 4.8 0.00 0.00 0.00 77 1009.5
20260502113625 10 31 1.6 8.0 0.00 0.00 0.00 77 1009.4
20260502113119 10 35 1.6 8.0 0.00 0.00 0.00 78 1009.5
20260502112613 10 34 1.6 4.8 0.00 0.00 0.00 79 1009.4
20260502112108 10 30 0.0 4.8 0.00 0.00 0.00 80 1009.4
20260502111601 10 34 0.0 3.2 0.00 0.00 0.00 82 1009.4
20260502111055 10 31 0.0 3.2 0.00 0.00 0.00 84 1009.4
20260502110549 10 34 0.0 3.2 0.00 0.00 0.00 85 1009.4
20260502110042 9 35 0.0 3.2 0.00 0.00 0.00 87 1009.5
20260502105537 9 8 0.0 0.0 0.00 0.00 0.00 88 1009.5
20260502105031 9 8 0.0 0.0 0.00 0.00 0.00 89 1009.5
20260502104525 9 8 0.0 0.0 0.00 0.00 0.00 89 1009.3
20260502104019 9 8 0.0 0.0 0.00 0.00 0.00 89 1009.2
20260502103740 9 8 0.0 0.0 0.00 0.00 0.00 89 1009.2
20260502103007 9 8 0.0 0.0 0.00 0.00 0.00 89 1009.2
20260502102501 9 8 0.0 0.0 0.00 0.00 0.00 89 1009.1
20260502101955 9 8 0.0 0.0 0.00 0.00 0.00 89 1009.1
20260502101449 9 8 0.0 0.0 0.00 0.00 0.00 89 1009.0
20260502100943 9 8 0.0 0.0 0.00 0.00 0.00 89 1008.9
20260502100436 9 8 0.0 0.0 0.00 0.00 0.00 89 1008.8
20260502091337 9 8 0.0 0.0 0.00 0.00 0.00 88 1008.6
20260502090831 9 8 0.0 0.0 0.00 0.00 0.00 88 1008.7
20260502090325 9 8 0.0 0.0 0.00 0.00 0.00 87 1008.6
20260502071134 11 8 0.0 0.0 0.00 0.00 0.00 82 1008.0
20260502070634 11 8 0.0 0.0 0.00 0.00 0.00 82 1008.0
20260502070135 11 8 0.0 0.0 0.00 0.00 0.00 82 1008.0
20260502065631 11 8 0.0 0.0 0.00 0.00 0.00 81 1008.1
20260502065130 11 8 0.0 0.0 0.00 0.00 0.00 81 1008.2
20260502064631 11 8 0.0 0.0 0.00 0.00 0.00 80 1008.1
20260502064131 11 8 0.0 0.0 0.00 0.00 0.00 80 1008.1
20260502063631 11 8 0.0 0.0 0.00 0.00 0.00 79 1007.9
20260502063131 11 8 0.0 0.0 0.00 0.00 0.00 79 1008.0
20260502062632 11 8 0.0 0.0 0.00 0.00 0.00 79 1008.1
20260502062132 11 8 0.0 0.0 0.00 0.00 0.00 78 1008.1
20260502061633 12 8 0.0 0.0 0.00 0.00 0.00 78 1008.2
20260502061132 12 8 0.0 1.6 0.00 0.00 0.00 78 1008.2
20260502060855 12 8 0.0 1.6 0.00 0.00 0.00 78 1008.3
20260502060130 12 8 0.0 0.0 0.00 0.00 0.00 77 1008.5
20260502055629 12 8 0.0 0.0 0.00 0.00 0.00 77 1008.5
20260502055129 12 8 0.0 0.0 0.00 0.00 0.00 76 1008.5
20260502054850 12 8 0.0 1.6 0.00 0.00 0.00 76 1008.5
20260502054129 12 8 0.0 1.6 0.00 0.00 0.00 76 1008.4
20260502053630 12 6 0.0 0.0 0.00 0.00 0.00 76 1008.3
20260502053129 12 6 0.0 0.0 0.00 0.00 0.00 76 1008.3
20260502052630 12 6 0.0 0.0 0.00 0.00 0.00 75 1008.3
20260502052130 12 6 0.0 0.0 0.00 0.00 0.00 75 1008.3
20260502051631 12 6 0.0 0.0 0.00 0.00 0.00 75 1008.3
20260502051357 12 6 0.0 0.0 0.00 0.00 0.00 75 1008.4
20260502050628 12 6 0.0 1.6 0.00 0.00 0.00 74 1008.3
20260502050121 12 11 0.0 1.6 0.00 0.00 0.00 74 1008.3
20260502045616 12 21 0.0 1.6 0.00 0.00 0.00 74 1008.3
20260502045109 13 21 0.0 1.6 0.00 0.00 0.00 74 1008.3
20260502044604 13 21 0.0 1.6 0.00 0.00 0.00 74 1008.4
20260502044058 13 20 0.0 1.6 0.00 0.00 0.00 74 1008.4
20260502043810 13 27 0.0 1.6 0.00 0.00 0.00 73 1008.5
20260502043046 13 91 0.0 3.2 0.00 0.00 0.00 73 1008.6
20260502042540 13 90 0.0 3.2 0.00 0.00 0.00 73 1008.6
20260502042034 13 213 0.0 1.6 0.00 0.00 0.00 73 1008.6
20260502041528 13 212 0.0 1.6 0.00 0.00 0.00 72 1008.5
20260502041249 13 212 0.0 1.6 0.00 0.00 0.00 72 1008.5
20260502040516 13 212 0.0 1.6 0.00 0.00 0.00 72 1008.6
20260502040010 13 124 0.0 1.6 0.00 0.00 0.00 71 1008.5
20260502035506 13 118 0.0 1.6 0.00 0.00 0.00 70 1008.4
20260502034959 13 118 0.0 1.6 0.00 0.00 0.00 70 1008.4
20260502034452 13 118 0.0 1.6 0.00 0.00 0.00 70 1008.5
20260502034210 13 210 0.0 1.6 0.00 0.00 0.00 69 1008.4
20260502033441 13 210 0.0 1.6 0.00 0.00 0.00 69 1008.4
20260502032936 13 210 0.0 1.6 0.00 0.00 0.00 68 1008.5
20260502032909 13 210 0.0 1.6 0.00 0.00 0.00 67 1008.4
20260502031923 14 210 0.0 1.6 0.00 0.00 0.00 67 1008.3
20260502031417 14 210 0.0 1.6 0.00 0.00 0.00 66 1008.1
20260502030911 14 210 0.0 1.6 0.00 0.00 0.00 66 1008.1
20260502030405 14 210 0.0 1.6 0.00 0.00 0.00 65 1008.1
20260502025859 14 210 0.0 1.6 0.00 0.00 0.00 65 1008.0
20260502025353 14 226 0.0 1.6 0.00 0.00 0.00 64 1007.8
20260502024846 15 229 0.0 1.6 0.00 0.00 0.00 64 1007.8
20260502024341 15 229 0.0 1.6 0.00 0.00 0.00 63 1007.9
20260502023834 15 162 0.0 1.6 0.00 0.00 0.00 62 1007.9
20260502023329 15 153 0.0 1.6 0.00 0.00 0.00 62 1008.0
20260502022823 15 326 0.0 1.6 0.00 0.00 0.00 62 1008.1
20260502022323 15 239 0.0 6.4 0.00 0.00 0.00 61 1008.1
20260502021822 15 179 0.0 6.4 0.00 0.00 0.00 60 1008.2
20260502021323 15 146 0.0 3.2 0.00 0.00 0.00 59 1008.1
20260502021258 15 159 0.0 3.2 0.00 0.00 0.00 59 1008.0
20260502020321 15 241 0.0 1.6 0.00 0.00 0.00 58 1008.0
20260502015819 15 153 0.0 0.0 0.00 0.00 0.00 57 1007.9
20260502015321 15 153 0.0 1.6 0.00 0.00 0.00 57 1007.9
20260502014820 15 153 0.0 1.6 0.00 0.00 0.00 57 1008.0
20260502014321 15 153 0.0 1.6 0.00 0.00 0.00 56 1007.9
20260502014041 15 15 0.0 0.0 0.00 0.00 0.00 56 1007.8
20260502013321 15 15 0.0 1.6 0.00 0.00 0.00 55 1007.8
20260502012817 15 15 0.0 1.6 0.00 0.00 0.00 54 1007.7
20260502012541 15 156 0.0 0.0 0.00 0.00 0.00 54 1007.7
20260502011815 16 156 0.0 0.0 0.00 0.00 0.00 53 1007.6
20260502011315 16 156 0.0 0.0 0.00 0.00 0.00 53 1007.5
20260502010817 16 156 0.0 0.0 0.00 0.00 0.00 53 1007.4
20260502010316 16 156 0.0 0.0 0.00 0.00 0.00 52 1007.4
20260502005816 16 156 0.0 0.0 0.00 0.00 0.00 51 1007.4
20260502005315 16 197 0.0 0.0 0.00 0.00 0.00 51 1007.4
20260502004817 16 198 0.0 0.0 0.00 0.00 0.00 50 1007.2
20260502004312 16 182 0.0 1.6 0.00 0.00 0.00 49 1007.1
20260502003811 16 196 0.0 1.6 0.00 0.00 0.00 49 1006.9
20260502003313 16 174 0.0 0.0 0.00 0.00 0.00 48 1006.9
20260502003038 16 174 0.0 0.0 0.00 0.00 0.00 48 1006.9
20260502002313 17 174 0.0 0.0 0.00 0.00 0.00 48 1006.9
20260502001814 17 174 0.0 0.0 0.00 0.00 0.00 47 1006.9
20260502001314 17 171 0.0 0.0 0.00 0.00 0.00 47 1006.9
20260502000816 17 186 0.0 1.6 0.00 0.00 0.00 46 1006.9
20260502000536 17 162 0.0 1.6 0.00 0.00 0.00 45 1007.0
20260501235810 17 129 0.0 1.6 0.00 0.00 0.00 46 1007.0
20260501235309 18 163 0.0 3.2 0.00 0.00 0.00 45 1007.0
20260501234811 18 158 0.0 3.2 0.00 0.00 0.00 45 1006.9
20260501234311 18 198 0.0 3.2 0.00 0.00 0.00 45 1006.9
20260501233809 18 234 0.0 3.2 0.00 0.00 0.00 44 1006.8
20260501233306 18 177 0.0 6.4 0.00 0.00 0.00 43 1006.7
20260501232804 18 164 0.0 6.4 0.00 0.00 0.00 43 1006.7
20260501232305 18 153 0.0 1.6 0.00 0.00 0.00 41 1006.6
20260501232025 18 144 0.0 1.6 0.00 0.00 0.00 41 1006.6
20260501231259 19 166 0.0 3.2 0.00 0.00 0.00 40 1006.6
20260501230755 19 153 0.0 3.2 0.00 0.00 0.00 39 1006.6
20260501230253 19 117 0.0 1.6 0.00 0.00 0.00 39 1006.7
20260501225755 19 148 0.0 1.6 0.00 0.00 0.00 38 1006.7
20260501225250 20 166 0.0 1.6 0.00 0.00 0.00 40 1006.8
20260501225011 20 161 0.0 3.2 0.00 0.00 0.00 39 1006.9
20260501224246 20 158 0.0 3.2 0.00 0.00 0.00 39 1006.9
20260501223746 20 158 0.0 3.2 0.00 0.00 0.00 38 1006.9
20260501223245 20 204 0.0 1.6 0.00 0.00 0.00 38 1007.0
20260501222744 21 157 0.0 3.2 0.00 0.00 0.00 38 1006.9
20260501222502 21 226 0.0 3.2 0.00 0.00 0.00 37 1006.9
20260501221737 21 193 0.0 3.2 0.00 0.00 0.00 38 1007.0
20260501221453 21 234 0.0 3.2 0.00 0.00 0.00 36 1007.1
20260501220726 21 107 0.0 3.2 0.00 0.00 0.00 35 1007.0